Location: ?????????
(41.2286°N, 23.0068°E)
Time: 07:56:38
(UTC+00:00)

Cosmos 1802 Rocket - Pass Details

Date: 08 November 2025
Orbit: 953 x 1011 km, 82.9° (Epoch: 04 December)

Event Time Altitude Azimuth Distance (km) Brightness Sun altitude
Rises 03:19:56 0° 352° (N) 3,736 6.9 -20.5°
Reaches altitude 10° 03:22:29 10° 353° (N) 2,776 6.3 -20.0°
Maximum altitude 03:28:52 87° 82° (E) 995 4.0 -18.8°
Drops below altitude 10° 03:35:08 10° 173° (S) 2,718 6.5 -17.6°
Sets 03:37:36 0° 174° (S) 3,653 7.2 -17.2°
